RH
16 17 17 16 16 15 15 15 14 13 13 12 12 12 12 11 10 10 11 12 12 11 11 11 12 13 13 14 14 15 16 18 15 17 16 18 18 18 15 14 14 14 16 17 22
16 17 17 17 16 16 16 15 14 13 13 12 11 11 11 11 10 12 13 12 11 10 10 11 13 13 15 17 17 16 18 16 17 17 18 18 18 16 15 16 16 15 17 18 18
16 17 16 17 18 19 18 17 15 14 13 13 12 11 11 12 11 15 14 13 11 10 10 11 12 13 15 18 18 18 17 16 19 20 21 20 19 17 16 16 15 16 17 18 18
17 18 18 18 20 21 21 18 17 16 14 14 13 12 12 13 12 15 13 11 10 10 10 11 12 14 18 20 19 18 17 15 17 20 23 20 18 18 17 17 16 17 16 14 13
19 20 19 20 21 22 20 19 19 18 16 15 15 14 14 14 15 15 13 12 10 9 10 11 14 16 18 20 20 20 19 17 15 16 19 20 16 14 12 12 12 12 11 10 10
21 21 21 21 23 23 22 21 20 20 18 17 17 16 16 15 18 15 13 11 10 9 10 11 14 17 19 21 22 22 21 19 14 12 13 13 12 12 11 13 13 12 11 10 11
22 22 22 23 26 25 24 24 23 22 21 19 19 19 18 19 19 16 14 12 12 10 11 13 14 18 20 22 24 24 23 19 15 13 12 12 11 12 11 13 14 13 11 12 12
22 23 24 27 29 28 27 27 26 25 23 21 22 21 22 22 19 17 15 14 14 13 13 14 17 19 21 22 23 24 23 19 15 15 13 12 8 13 10 13 14 12 12 13 13
23 25 27 29 31 31 31 30 29 28 26 24 24 23 25 24 20 18 17 15 14 14 14 15 19 21 23 23 28 28 26 19 15 17 16 13 10 13 14 14 13 14 14 15 15
25 28 32 35 36 37 35 32 31 31 28 28 26 25 26 23 20 18 18 16 16 16 16 17 20 23 26 26 31 26 27 21 18 18 18 17 14 14 16 16 16 16 16 17 16
33 35 38 41 42 41 38 35 33 33 32 31 31 27 25 22 21 22 19 17 18 19 20 21 24 26 21 24 23 25 25 25 23 20 19 19 17 13 14 15 16 16 16 17 18
40 40 42 46 46 45 43 39 42 39 39 36 32 28 27 26 24 23 20 20 20 21 23 26 27 23 23 22 24 27 29 29 28 30 22 21 21 17 14 13 13 13 15 17 19
52 50 50 51 49 50 49 47 46 44 45 38 35 31 30 28 27 27 24 24 23 22 25 26 23 28 28 26 26 27 30 27 26 30 27 26 21 18 18 16 13 13 14 17 21
62 59 60 56 52 53 54 51 50 50 50 39 37 35 35 32 31 30 27 26 26 26 28 25 27 29 29 30 29 27 30 30 33 34 38 29 31 19 23 23 22 19 17 21 24
74 72 67 63 59 58 56 55 52 55 55 41 40 39 38 35 34 33 31 31 28 29 29 26 30 32 33 32 32 33 33 35 37 40 37 34 38 22 28 30 30 28 25 25 25
81 76 72 65 66 62 62 60 56 58 52 44 44 44 39 40 39 38 37 33 32 31 31 30 29 32 35 38 38 35 33 37 41 39 43 31 32 23 31 31 32 30 28 26 25
86 80 76 74 70 66 67 66 62 64 50 48 50 46 43 42 43 43 41 40 36 34 35 34 33 32 34 37 41 42 40 47 41 47 42 32 32 22 22 26 29 27 25 26 27
89 84 83 81 75 72 71 66 60 55 55 52 51 47 46 45 46 45 45 43 43 38 42 45 35 38 38 38 42 46 44 52 39 50 44 39 40 28 25 25 28 30 29 28 27
94 90 86 83 80 77 80 75 65 59 55 57 54 50 49 50 46 49 48 48 43 43 38 47 41 42 43 43 44 47 54 48 53 50 56 46 36 29 28 30 32 34 34 32 32
96 93 93 90 86 85 84 73 63 62 61 59 52 50 49 55 52 50 47 46 46 43 41 41 45 41 44 46 49 50 52 61 62 55 61 48 44 43 35 35 36 38 36 35 34
98 98 96 95 91 90 89 77 71 68 65 61 58 56 52 53 52 51 47 46 46 45 45 45 47 44 47 48 49 57 59 60 63 65 66 62 43 37 37 39 39 39 39 40 40
98 98 96 97 97 92 88 81 73 74 69 66 60 57 57 58 59 56 52 48 49 49 52 51 56 57 48 48 50 53 57 61 74 67 74 70 57 42 42 42 44 44 45 46 49
98 99 98 98 95 91 86 82 77 74 73 70 69 64 63 63 63 60 56 56 54 53 56 56 62 68 56 54 53 55 58 57 64 71 78 82 59 50 49 53 53 54 54 51 47
98 98 98 97 94 90 90 87 81 77 74 73 73 74 71 68 62 62 63 60 59 57 58 60 62 61 62 56 60 63 64 65 68 79 69 68 62 58 58 58 58 56 54 53 49
97 97 96 97 96 98 95 89 84 84 78 76 76 75 71 73 68 70 68 68 66 64 65 66 67 64 62 62 66 65 65 71 75 74 76 63 69 66 65 64 63 60 59 57 54
96 97 97 98 97 97 96 95 87 84 82 81 76 71 73 73 70 74 70 73 72 68 71 72 75 70 70 65 65 62 59 62 66 72 73 73 69 65 71 70 68 68 69 63 55
98 95 97 96 96 97 96 92 88 82 84 81 77 78 78 77 75 71 70 70 73 73 74 74 73 72 70 63 60 55 48 47 49 55 60 67 63 70 74 74 72 73 72 65 61